User: anonymous   Login
Location: Oracle State Park
(32.6095°N, 110.7330°W)
Time: 00:08:28
(UTC-07:00)
Language:

YUBILEINY - Orbit

View from above orbital plane
View from above orbital plane
View from above satellite
View from above satellite

Ground track
Ground track

The orbit data is extracted from the following two-line orbital elements,

1 32953U 08025A   19145.09696073  .00000020  00000-0  75656-4 0  9992
2 32953  82.5011 160.0606 0019084 178.6266 181.4872 12.43089689499258
Epoch (UTC): 25 May 2019 02:19:37
Eccentricity: 0.0019084
inclination: 82.5011°
perigee height: 1478 km
apogee height: 1508 km
right ascension of ascending node: 160.0606°
argument of perigee: 178.6266°
revolutions per day: 12.43089689
mean anomaly at epoch: 181.4872°
orbit number at epoch: 49925

The dashed part of the orbit path shows where the satellite is in the earth's shadow,  

DLR